Change the Weather History Date:

Saturday, March 30, 2013

  Actual Average Record
Temperature  
Mean Temperature 46 °F 48 °F  
Max Temperature 60 °F 59 °F 82 °F (1986)
Min Temperature 32 °F 38 °F 18 °F (1964)
Degree Days  
Heating Degree Days 19 17  
Month to date heating degree days 841 650  
Since 1 July heating degree days 4551 4477  
Cooling Degree Days 0 0  
Month to date cooling degree days 0 0  
Year to date cooling degree days 0 0  
Moisture  
Dew Point 31 °F    
Average Humidity 59    
Maximum Humidity 85    
Minimum Humidity 33    
Precipitation  
Precipitation 0.00 in 0.14 in 1.78 in (1985)
Month to date precipitation 3.83 3.82  
Year to date precipitation 9.43 9.63  
Snow  
Snow 0.00 in 0.10 in 7.60 in (1987)
Month to date snowfall 8.8 3.0  
Since 1 July snowfall 25.2 21.6  
Snow Depth 0.00 in    
Sea Level Pressure  
Sea Level Pressure 30.13 in    
Wind  
Wind Speed 5 mph (SE)    
Max Wind Speed 21 mph    
Max Gust Speed 30 mph    
Visibility 10 miles    
Events      
T = Trace of Precipitation, MM = Missing Value Source: NWS Daily Summary

Daily Weather History Graph

Daily Weather History Graph

Search for Another Location

Airport or City:

Trip Planner

Search our weather history database for the weather conditions in past years. The results will help you decide how hot, cold, wet, or windy it might be!

Date:

Astronomy

Mar. 30, 2013 Rise Set
Actual Time 7:25 AM EDT 8:00 PM EDT
Civil Twilight 6:59 AM EDT 8:27 PM EDT
Nautical Twilight 6:27 AM EDT 8:59 PM EDT
Astronomical Twilight 5:55 AM EDT 9:31 PM EDT
Moon No Moon Rise 9:22 AM EDT (3/30)
Length of Visible Light 13h 28m
Length of Day
12h 34m
Waning Gibbous, 86% of the Moon is Illuminated
Mar 30
Waning Gibbous
Apr 3
Last Quarter
Apr 10
New
Apr 18
First Quarter
Apr 25
Full

Hourly Weather History & Observations

Time (EDT) Temp. Windchill Dew Point Humidity Pressure Visibility Wind Dir Wind Speed Gust Speed Precip Events Conditions
12:52 AM 46.0 °F 43.1 °F 30.0 °F 54% 30.23 in 10.0 mi NE 5.8 mph - N/A   Mostly Cloudy
1:52 AM 43.0 °F 41.3 °F 30.0 °F 60% 30.23 in 10.0 mi East 3.5 mph - N/A   Mostly Cloudy
2:52 AM 42.1 °F 40.2 °F 30.0 °F 62% 30.22 in 10.0 mi East 3.5 mph - N/A   Partly Cloudy
3:52 AM 41.0 °F 38.0 °F 28.9 °F 62% 30.22 in 10.0 mi ENE 4.6 mph - N/A   Partly Cloudy
4:52 AM 37.9 °F - 28.0 °F 68% 30.21 in 10.0 mi Calm Calm - N/A   Clear
5:52 AM 37.0 °F 34.5 °F 30.0 °F 76% 30.21 in 10.0 mi East 3.5 mph - N/A   Clear
6:52 AM 33.1 °F - 28.9 °F 85% 30.22 in 10.0 mi Calm Calm - N/A   Mostly Cloudy
7:52 AM 33.1 °F - 28.9 °F 85% 30.24 in 10.0 mi Calm Calm - N/A   Scattered Clouds
8:52 AM 39.0 °F 36.8 °F 35.1 °F 86% 30.23 in 10.0 mi ESE 3.5 mph - N/A   Clear
9:52 AM 46.9 °F - 32.0 °F 56% 30.21 in 10.0 mi SE 8.1 mph - N/A   Clear
10:52 AM 51.1 °F - 30.0 °F 44% 30.21 in 10.0 mi SE 6.9 mph - N/A   Scattered Clouds
11:52 AM 53.1 °F - 30.0 °F 41% 30.19 in 10.0 mi ESE 5.8 mph - N/A   Partly Cloudy
12:52 PM 55.0 °F - 30.9 °F 40% 30.16 in 10.0 mi South 5.8 mph 18.4 mph N/A   Scattered Clouds
1:52 PM 57.0 °F - 30.9 °F 37% 30.13 in 10.0 mi SE 11.5 mph 16.1 mph N/A   Mostly Cloudy
2:52 PM 57.0 °F - 28.9 °F 34% 30.10 in 10.0 mi Calm Calm - N/A   Mostly Cloudy
4:52 PM 59.0 °F - 30.9 °F 35% 30.06 in 10.0 mi South 10.4 mph - N/A   Mostly Cloudy
5:52 PM 59.0 °F - 34.0 °F 39% 30.03 in 10.0 mi South 9.2 mph 18.4 mph N/A   Mostly Cloudy
6:52 PM 57.0 °F - 32.0 °F 39% 30.02 in 10.0 mi South 9.2 mph - N/A   Mostly Cloudy
7:52 PM 53.1 °F - 33.1 °F 47% 30.01 in 10.0 mi South 8.1 mph - N/A   Overcast
8:52 PM 52.0 °F - 32.0 °F 47% 29.99 in 10.0 mi South 3.5 mph - N/A   Overcast
9:52 PM 52.0 °F - 32.0 °F 47% 29.97 in 10.0 mi SSE 5.8 mph - N/A   Overcast
10:52 PM 50.0 °F - 34.0 °F 54% 29.96 in 10.0 mi South 5.8 mph - N/A   Overcast
11:52 PM 50.0 °F - 35.1 °F 57% 29.95 in 10.0 mi South 4.6 mph - N/A   Overcast